owner,sensor,date,latitude,longitude,vertical_datum,sea_water_temperature,qcFlag 
TCOON,ioos:station:TCOON:127:1,2019-08-01T03:24:00Z,28.2598,-96.7737,0.0,30.9,11111222 
TCOON,ioos:station:TCOON:127:1,2019-08-01T04:24:00Z,28.2598,-96.7737,0.0,30.7,11111222 
TCOON,ioos:station:TCOON:127:1,2019-08-01T05:24:00Z,28.2598,-96.7737,0.0,30.7,11111222 
TCOON,ioos:station:TCOON:127:1,2019-08-01T06:24:00Z,28.2598,-96.7737,0.0,30.5,11111222 
TCOON,ioos:station:TCOON:127:1,2019-08-01T07:24:00Z,28.2598,-96.7737,0.0,30.5,11111222 
TCOON,ioos:station:TCOON:127:1,2019-08-01T08:24:00Z,28.2598,-96.7737,0.0,30.4,11111222 
TCOON,ioos:station:TCOON:127:1,2019-08-01T09:24:00Z,28.2598,-96.7737,0.0,30.5,11111222 
TCOON,ioos:station:TCOON:127:1,2019-08-01T10:24:00Z,28.2598,-96.7737,0.0,30.5,11111222 
TCOON,ioos:station:TCOON:127:1,2019-08-01T11:24:00Z,28.2598,-96.7737,0.0,30.2,11111222 
TCOON,ioos:station:TCOON:127:1,2019-08-01T12:24:00Z,28.2598,-96.7737,0.0,30.2,11111222 
TCOON,ioos:station:TCOON:127:1,2019-08-01T13:24:00Z,28.2598,-96.7737,0.0,30.0,11111222 
TCOON,ioos:station:TCOON:127:1,2019-08-01T14:24:00Z,28.2598,-96.7737,0.0,30.1,11111222 
TCOON,ioos:station:TCOON:127:1,2019-08-01T15:24:00Z,28.2598,-96.7737,0.0,29.9,11111222 
TCOON,ioos:station:TCOON:127:1,2019-08-01T16:24:00Z,28.2598,-96.7737,0.0,30.2,11111222 
TCOON,ioos:station:TCOON:127:1,2019-08-01T17:24:00Z,28.2598,-96.7737,0.0,30.6,11111222 
TCOON,ioos:station:TCOON:127:1,2019-08-01T18:24:00Z,28.2598,-96.7737,0.0,31.3,11111222 
TCOON,ioos:station:TCOON:127:1,2019-08-01T19:24:00Z,28.2598,-96.7737,0.0,32.2,11111222 
TCOON,ioos:station:TCOON:127:1,2019-08-01T20:24:00Z,28.2598,-96.7737,0.0,32.2,11111222 
TCOON,ioos:station:TCOON:127:1,2019-08-01T21:24:00Z,28.2598,-96.7737,0.0,32.1,11111222 
TCOON,ioos:station:TCOON:127:1,2019-08-01T22:24:00Z,28.2598,-96.7737,0.0,32.2,11111222 
TCOON,ioos:station:TCOON:127:1,2019-08-01T23:24:00Z,28.2598,-96.7737,0.0,32.2,11111222 
TCOON,ioos:station:TCOON:127:1,2019-08-02T00:24:00Z,28.2598,-96.7737,0.0,32.1,11111222 
TCOON,ioos:station:TCOON:127:1,2019-08-02T01:24:00Z,28.2598,-96.7737,0.0,32.0,11111222 
TCOON,ioos:station:TCOON:127:1,2019-08-02T02:24:00Z,28.2598,-96.7737,0.0,31.8,11111222 
TCOON,ioos:station:TCOON:127:1,2019-08-02T03:24:00Z,28.2598,-96.7737,0.0,31.6,11111222 
TCOON,ioos:station:TCOON:127:1,2019-08-02T04:24:00Z,28.2598,-96.7737,0.0,31.5,11111222 
TCOON,ioos:station:TCOON:127:1,2019-08-02T05:24:00Z,28.2598,-96.7737,0.0,31.4,11111222 
TCOON,ioos:station:TCOON:127:1,2019-08-02T06:24:00Z,28.2598,-96.7737,0.0,31.2,11111222 
TCOON,ioos:station:TCOON:127:1,2019-08-02T07:24:00Z,28.2598,-96.7737,0.0,31.1,11111222 
TCOON,ioos:station:TCOON:127:1,2019-08-02T08:24:00Z,28.2598,-96.7737,0.0,31.0,11111222 
TCOON,ioos:station:TCOON:127:1,2019-08-02T09:24:00Z,28.2598,-96.7737,0.0,30.9,11111222 
TCOON,ioos:station:TCOON:127:1,2019-08-02T10:24:00Z,28.2598,-96.7737,0.0,30.9,11111222 
TCOON,ioos:station:TCOON:127:1,2019-08-02T11:24:00Z,28.2598,-96.7737,0.0,30.8,11111222 
TCOON,ioos:station:TCOON:127:1,2019-08-02T12:24:00Z,28.2598,-96.7737,0.0,30.7,11111222 
TCOON,ioos:station:TCOON:127:1,2019-08-02T13:24:00Z,28.2598,-96.7737,0.0,30.8,11111222 
TCOON,ioos:station:TCOON:127:1,2019-08-02T14:24:00Z,28.2598,-96.7737,0.0,30.9,11111222 
TCOON,ioos:station:TCOON:127:1,2019-08-02T15:24:00Z,28.2598,-96.7737,0.0,31.0,11111222 
TCOON,ioos:station:TCOON:127:1,2019-08-02T16:24:00Z,28.2598,-96.7737,0.0,31.1,11111222 
TCOON,ioos:station:TCOON:127:1,2019-08-02T17:24:00Z,28.2598,-96.7737,0.0,31.2,11111222 
TCOON,ioos:station:TCOON:127:1,2019-08-02T18:24:00Z,28.2598,-96.7737,0.0,31.5,11111222 
TCOON,ioos:station:TCOON:127:1,2019-08-02T19:24:00Z,28.2598,-96.7737,0.0,32.0,11111222 
TCOON,ioos:station:TCOON:127:1,2019-08-02T20:24:00Z,28.2598,-96.7737,0.0,32.5,11111222 
TCOON,ioos:station:TCOON:127:1,2019-08-02T21:24:00Z,28.2598,-96.7737,0.0,32.7,11111222 
TCOON,ioos:station:TCOON:127:1,2019-08-02T22:24:00Z,28.2598,-96.7737,0.0,32.7,11111222 
TCOON,ioos:station:TCOON:127:1,2019-08-02T23:24:00Z,28.2598,-96.7737,0.0,32.7,11111222 
TCOON,ioos:station:TCOON:127:1,2019-08-03T00:24:00Z,28.2598,-96.7737,0.0,32.5,11111222 
TCOON,ioos:station:TCOON:127:1,2019-08-03T01:24:00Z,28.2598,-96.7737,0.0,32.4,11111222 
TCOON,ioos:station:TCOON:127:1,2019-08-03T02:24:00Z,28.2598,-96.7737,0.0,32.2,11111222 
TCOON,ioos:station:TCOON:127:1,2019-08-03T03:24:00Z,28.2598,-96.7737,0.0,32.1,11111222 
TCOON,ioos:station:TCOON:127:1,2019-08-03T04:24:00Z,28.2598,-96.7737,0.0,31.9,11111222 
TCOON,ioos:station:TCOON:127:1,2019-08-03T05:24:00Z,28.2598,-96.7737,0.0,31.8,11111222 
TCOON,ioos:station:TCOON:127:1,2019-08-03T06:24:00Z,28.2598,-96.7737,0.0,31.5,11111222 
TCOON,ioos:station:TCOON:127:1,2019-08-03T07:24:00Z,28.2598,-96.7737,0.0,31.4,11111222 
TCOON,ioos:station:TCOON:127:1,2019-08-03T08:24:00Z,28.2598,-96.7737,0.0,31.3,11111222 
TCOON,ioos:station:TCOON:127:1,2019-08-03T09:24:00Z,28.2598,-96.7737,0.0,31.2,11111222 
TCOON,ioos:station:TCOON:127:1,2019-08-03T10:24:00Z,28.2598,-96.7737,0.0,31.0,11111222 
TCOON,ioos:station:TCOON:127:1,2019-08-03T11:24:00Z,28.2598,-96.7737,0.0,31.0,11111222 
TCOON,ioos:station:TCOON:127:1,2019-08-03T12:24:00Z,28.2598,-96.7737,0.0,31.0,11111222 
TCOON,ioos:station:TCOON:127:1,2019-08-03T13:24:00Z,28.2598,-96.7737,0.0,31.0,11111222 
TCOON,ioos:station:TCOON:127:1,2019-08-03T14:24:00Z,28.2598,-96.7737,0.0,31.0,11111222 
TCOON,ioos:station:TCOON:127:1,2019-08-03T15:24:00Z,28.2598,-96.7737,0.0,31.0,11111222 
TCOON,ioos:station:TCOON:127:1,2019-08-03T16:24:00Z,28.2598,-96.7737,0.0,31.0,11111222 
TCOON,ioos:station:TCOON:127:1,2019-08-03T17:30:00Z,28.2598,-96.7737,0.0,31.1,11111222 
TCOON,ioos:station:TCOON:127:1,2019-08-03T18:24:00Z,28.2598,-96.7737,0.0,31.1,11111222 
TCOON,ioos:station:TCOON:127:1,2019-08-03T19:24:00Z,28.2598,-96.7737,0.0,31.3,11111222 
TCOON,ioos:station:TCOON:127:1,2019-08-03T20:24:00Z,28.2598,-96.7737,0.0,32.4,11111222 
TCOON,ioos:station:TCOON:127:1,2019-08-03T21:24:00Z,28.2598,-96.7737,0.0,32.6,11111222 
TCOON,ioos:station:TCOON:127:1,2019-08-03T22:24:00Z,28.2598,-96.7737,0.0,32.5,11111222 
TCOON,ioos:station:TCOON:127:1,2019-08-03T23:24:00Z,28.2598,-96.7737,0.0,32.4,11111222 
TCOON,ioos:station:TCOON:127:1,2019-08-04T00:24:00Z,28.2598,-96.7737,0.0,32.3,11111222 
TCOON,ioos:station:TCOON:127:1,2019-08-04T01:24:00Z,28.2598,-96.7737,0.0,32.1,11111222 
TCOON,ioos:station:TCOON:127:1,2019-08-04T02:24:00Z,28.2598,-96.7737,0.0,31.9,11111222 
TCOON,ioos:station:TCOON:127:1,2019-08-04T03:24:00Z,28.2598,-96.7737,0.0,31.7,11111222 
TCOON,ioos:station:TCOON:127:1,2019-08-04T04:24:00Z,28.2598,-96.7737,0.0,31.6,11111222 
TCOON,ioos:station:TCOON:127:1,2019-08-04T05:24:00Z,28.2598,-96.7737,0.0,31.4,11111222 
TCOON,ioos:station:TCOON:127:1,2019-08-04T06:24:00Z,28.2598,-96.7737,0.0,31.3,11111222 
TCOON,ioos:station:TCOON:127:1,2019-08-04T07:24:00Z,28.2598,-96.7737,0.0,31.4,11111222 
TCOON,ioos:station:TCOON:127:1,2019-08-04T08:24:00Z,28.2598,-96.7737,0.0,31.1,11111222 
TCOON,ioos:station:TCOON:127:1,2019-08-04T09:24:00Z,28.2598,-96.7737,0.0,31.0,11111222 
TCOON,ioos:station:TCOON:127:1,2019-08-04T10:24:00Z,28.2598,-96.7737,0.0,30.8,11111222 
TCOON,ioos:station:TCOON:127:1,2019-08-04T11:24:00Z,28.2598,-96.7737,0.0,30.5,11111222 
TCOON,ioos:station:TCOON:127:1,2019-08-04T12:24:00Z,28.2598,-96.7737,0.0,30.6,11111222 
TCOON,ioos:station:TCOON:127:1,2019-08-04T13:24:00Z,28.2598,-96.7737,0.0,30.9,11111222 
TCOON,ioos:station:TCOON:127:1,2019-08-04T14:24:00Z,28.2598,-96.7737,0.0,30.9,11111222 
TCOON,ioos:station:TCOON:127:1,2019-08-04T15:24:00Z,28.2598,-96.7737,0.0,31.0,11111222 
TCOON,ioos:station:TCOON:127:1,2019-08-04T16:24:00Z,28.2598,-96.7737,0.0,30.8,11111222 
TCOON,ioos:station:TCOON:127:1,2019-08-04T17:24:00Z,28.2598,-96.7737,0.0,30.9,11111222 
TCOON,ioos:station:TCOON:127:1,2019-08-04T18:24:00Z,28.2598,-96.7737,0.0,30.8,11111222 
TCOON,ioos:station:TCOON:127:1,2019-08-04T19:24:00Z,28.2598,-96.7737,0.0,31.0,11111222 
TCOON,ioos:station:TCOON:127:1,2019-08-04T20:24:00Z,28.2598,-96.7737,0.0,31.2,11111222 
TCOON,ioos:station:TCOON:127:1,2019-08-04T21:24:00Z,28.2598,-96.7737,0.0,32.1,11111222 
TCOON,ioos:station:TCOON:127:1,2019-08-04T22:24:00Z,28.2598,-96.7737,0.0,32.3,11111222 
TCOON,ioos:station:TCOON:127:1,2019-08-04T23:24:00Z,28.2598,-96.7737,0.0,32.1,11111222 
TCOON,ioos:station:TCOON:127:1,2019-08-05T00:24:00Z,28.2598,-96.7737,0.0,32.1,11111222 
TCOON,ioos:station:TCOON:127:1,2019-08-05T01:24:00Z,28.2598,-96.7737,0.0,32.0,11111222 
TCOON,ioos:station:TCOON:127:1,2019-08-05T02:24:00Z,28.2598,-96.7737,0.0,31.9,11111222 
TCOON,ioos:station:TCOON:127:1,2019-08-05T03:24:00Z,28.2598,-96.7737,0.0,31.7,11111222 
TCOON,ioos:station:TCOON:127:1,2019-08-05T04:24:00Z,28.2598,-96.7737,0.0,31.6,11111222 
TCOON,ioos:station:TCOON:127:1,2019-08-05T05:24:00Z,28.2598,-96.7737,0.0,31.4,11111222 
TCOON,ioos:station:TCOON:127:1,2019-08-05T06:24:00Z,28.2598,-96.7737,0.0,31.2,11111222 
TCOON,ioos:station:TCOON:127:1,2019-08-05T07:24:00Z,28.2598,-96.7737,0.0,31.0,11111222 
TCOON,ioos:station:TCOON:127:1,2019-08-05T08:24:00Z,28.2598,-96.7737,0.0,30.9,11111222 
TCOON,ioos:station:TCOON:127:1,2019-08-05T09:24:00Z,28.2598,-96.7737,0.0,30.8,11111222 
TCOON,ioos:station:TCOON:127:1,2019-08-05T10:24:00Z,28.2598,-96.7737,0.0,30.7,11111222 
TCOON,ioos:station:TCOON:127:1,2019-08-05T11:24:00Z,28.2598,-96.7737,0.0,30.6,11111222 
TCOON,ioos:station:TCOON:127:1,2019-08-05T12:24:00Z,28.2598,-96.7737,0.0,30.6,11111222 
TCOON,ioos:station:TCOON:127:1,2019-08-05T13:24:00Z,28.2598,-96.7737,0.0,30.5,11111222 
TCOON,ioos:station:TCOON:127:1,2019-08-05T14:24:00Z,28.2598,-96.7737,0.0,30.7,11111222 
TCOON,ioos:station:TCOON:127:1,2019-08-05T15:24:00Z,28.2598,-96.7737,0.0,30.8,11111222 
TCOON,ioos:station:TCOON:127:1,2019-08-05T16:30:00Z,28.2598,-96.7737,0.0,30.8,11111222 
TCOON,ioos:station:TCOON:127:1,2019-08-05T17:30:00Z,28.2598,-96.7737,0.0,30.3,11111222 
TCOON,ioos:station:TCOON:127:1,2019-08-05T18:24:00Z,28.2598,-96.7737,0.0,30.7,11111222 
TCOON,ioos:station:TCOON:127:1,2019-08-05T19:24:00Z,28.2598,-96.7737,0.0,31.1,11111222 
TCOON,ioos:station:TCOON:127:1,2019-08-05T20:30:00Z,28.2598,-96.7737,0.0,31.3,11111222 
TCOON,ioos:station:TCOON:127:1,2019-08-05T21:24:00Z,28.2598,-96.7737,0.0,31.2,11111222 
TCOON,ioos:station:TCOON:127:1,2019-08-05T22:24:00Z,28.2598,-96.7737,0.0,31.3,11111222 
TCOON,ioos:station:TCOON:127:1,2019-08-05T23:24:00Z,28.2598,-96.7737,0.0,31.4,11111222 
TCOON,ioos:station:TCOON:127:1,2019-08-06T00:24:00Z,28.2598,-96.7737,0.0,31.5,11111222 
TCOON,ioos:station:TCOON:127:1,2019-08-06T01:24:00Z,28.2598,-96.7737,0.0,31.6,11111222 
TCOON,ioos:station:TCOON:127:1,2019-08-06T02:24:00Z,28.2598,-96.7737,0.0,31.5,11111222 
TCOON,ioos:station:TCOON:127:1,2019-08-06T03:24:00Z,28.2598,-96.7737,0.0,31.4,11111222 
TCOON,ioos:station:TCOON:127:1,2019-08-06T04:24:00Z,28.2598,-96.7737,0.0,31.2,11111222 
TCOON,ioos:station:TCOON:127:1,2019-08-06T05:24:00Z,28.2598,-96.7737,0.0,31.1,11111222 
TCOON,ioos:station:TCOON:127:1,2019-08-06T06:24:00Z,28.2598,-96.7737,0.0,31.0,11111222 
TCOON,ioos:station:TCOON:127:1,2019-08-06T07:24:00Z,28.2598,-96.7737,0.0,30.8,11111222 
TCOON,ioos:station:TCOON:127:1,2019-08-06T08:24:00Z,28.2598,-96.7737,0.0,30.7,11111222 
TCOON,ioos:station:TCOON:127:1,2019-08-06T09:24:00Z,28.2598,-96.7737,0.0,30.6,11111222 
TCOON,ioos:station:TCOON:127:1,2019-08-06T10:24:00Z,28.2598,-96.7737,0.0,30.4,11111222 
TCOON,ioos:station:TCOON:127:1,2019-08-06T11:24:00Z,28.2598,-96.7737,0.0,30.2,11111222 
TCOON,ioos:station:TCOON:127:1,2019-08-06T12:24:00Z,28.2598,-96.7737,0.0,30.0,11111222 
TCOON,ioos:station:TCOON:127:1,2019-08-06T13:24:00Z,28.2598,-96.7737,0.0,30.1,11111222 
TCOON,ioos:station:TCOON:127:1,2019-08-06T14:24:00Z,28.2598,-96.7737,0.0,30.2,11111222 
TCOON,ioos:station:TCOON:127:1,2019-08-06T15:24:00Z,28.2598,-96.7737,0.0,30.2,11111222 
TCOON,ioos:station:TCOON:127:1,2019-08-06T16:24:00Z,28.2598,-96.7737,0.0,30.4,11111222 
TCOON,ioos:station:TCOON:127:1,2019-08-06T17:30:00Z,28.2598,-96.7737,0.0,30.8,11111222 
TCOON,ioos:station:TCOON:127:1,2019-08-06T18:24:00Z,28.2598,-96.7737,0.0,31.2,11111222 
TCOON,ioos:station:TCOON:127:1,2019-08-06T19:24:00Z,28.2598,-96.7737,0.0,31.0,11111222 
TCOON,ioos:station:TCOON:127:1,2019-08-06T20:24:00Z,28.2598,-96.7737,0.0,31.0,11111222 
TCOON,ioos:station:TCOON:127:1,2019-08-06T21:24:00Z,28.2598,-96.7737,0.0,31.0,11111222 
TCOON,ioos:station:TCOON:127:1,2019-08-06T22:24:00Z,28.2598,-96.7737,0.0,31.2,11111222 
TCOON,ioos:station:TCOON:127:1,2019-08-06T23:24:00Z,28.2598,-96.7737,0.0,31.2,11111222 
TCOON,ioos:station:TCOON:127:1,2019-08-07T00:30:00Z,28.2598,-96.7737,0.0,31.1,11111222 
TCOON,ioos:station:TCOON:127:1,2019-08-07T01:24:00Z,28.2598,-96.7737,0.0,31.0,11111222 
TCOON,ioos:station:TCOON:127:1,2019-08-07T02:24:00Z,28.2598,-96.7737,0.0,30.9,11111222 
TCOON,ioos:station:TCOON:127:1,2019-08-07T03:24:00Z,28.2598,-96.7737,0.0,30.7,11111222 
TCOON,ioos:station:TCOON:127:1,2019-08-07T04:24:00Z,28.2598,-96.7737,0.0,30.6,11111222 
TCOON,ioos:station:TCOON:127:1,2019-08-07T05:24:00Z,28.2598,-96.7737,0.0,30.6,11111222 
TCOON,ioos:station:TCOON:127:1,2019-08-07T06:24:00Z,28.2598,-96.7737,0.0,30.5,11111222 
TCOON,ioos:station:TCOON:127:1,2019-08-07T07:24:00Z,28.2598,-96.7737,0.0,30.4,11111222 
TCOON,ioos:station:TCOON:127:1,2019-08-07T08:24:00Z,28.2598,-96.7737,0.0,30.3,11111222 
TCOON,ioos:station:TCOON:127:1,2019-08-07T09:24:00Z,28.2598,-96.7737,0.0,30.3,11111222 
TCOON,ioos:station:TCOON:127:1,2019-08-07T10:24:00Z,28.2598,-96.7737,0.0,30.2,11111222 
TCOON,ioos:station:TCOON:127:1,2019-08-07T11:24:00Z,28.2598,-96.7737,0.0,30.0,11111222 
TCOON,ioos:station:TCOON:127:1,2019-08-07T12:24:00Z,28.2598,-96.7737,0.0,30.0,11111222 
TCOON,ioos:station:TCOON:127:1,2019-08-07T13:24:00Z,28.2598,-96.7737,0.0,29.9,11111222 
TCOON,ioos:station:TCOON:127:1,2019-08-07T14:24:00Z,28.2598,-96.7737,0.0,29.9,11111222 
TCOON,ioos:station:TCOON:127:1,2019-08-07T15:30:00Z,28.2598,-96.7737,0.0,30.0,11111222 
TCOON,ioos:station:TCOON:127:1,2019-08-07T16:24:00Z,28.2598,-96.7737,0.0,30.3,11111222 
TCOON,ioos:station:TCOON:127:1,2019-08-07T17:24:00Z,28.2598,-96.7737,0.0,30.5,11111222 
TCOON,ioos:station:TCOON:127:1,2019-08-07T18:24:00Z,28.2598,-96.7737,0.0,31.2,11111222 
TCOON,ioos:station:TCOON:127:1,2019-08-07T19:24:00Z,28.2598,-96.7737,0.0,31.0,11111222 
TCOON,ioos:station:TCOON:127:1,2019-08-07T20:24:00Z,28.2598,-96.7737,0.0,31.2,11111222 
TCOON,ioos:station:TCOON:127:1,2019-08-07T21:24:00Z,28.2598,-96.7737,0.0,31.5,11111222 
TCOON,ioos:station:TCOON:127:1,2019-08-07T22:24:00Z,28.2598,-96.7737,0.0,31.5,11111222 
TCOON,ioos:station:TCOON:127:1,2019-08-07T23:24:00Z,28.2598,-96.7737,0.0,31.5,11111222 
TCOON,ioos:station:TCOON:127:1,2019-08-08T00:24:00Z,28.2598,-96.7737,0.0,31.5,11111222 
TCOON,ioos:station:TCOON:127:1,2019-08-08T01:24:00Z,28.2598,-96.7737,0.0,31.4,11111222 
TCOON,ioos:station:TCOON:127:1,2019-08-08T02:24:00Z,28.2598,-96.7737,0.0,31.2,11111222 
TCOON,ioos:station:TCOON:127:1,2019-08-08T03:24:00Z,28.2598,-96.7737,0.0,31.1,11111222 
TCOON,ioos:station:TCOON:127:1,2019-08-08T04:24:00Z,28.2598,-96.7737,0.0,31.0,11111222 
TCOON,ioos:station:TCOON:127:1,2019-08-08T05:24:00Z,28.2598,-96.7737,0.0,30.9,11111222 
TCOON,ioos:station:TCOON:127:1,2019-08-08T06:24:00Z,28.2598,-96.7737,0.0,30.8,11111222 
TCOON,ioos:station:TCOON:127:1,2019-08-08T07:24:00Z,28.2598,-96.7737,0.0,30.7,11111222 
TCOON,ioos:station:TCOON:127:1,2019-08-08T08:24:00Z,28.2598,-96.7737,0.0,30.5,11111222 
TCOON,ioos:station:TCOON:127:1,2019-08-08T09:24:00Z,28.2598,-96.7737,0.0,30.4,11111222 
TCOON,ioos:station:TCOON:127:1,2019-08-08T10:24:00Z,28.2598,-96.7737,0.0,30.3,11111222 
TCOON,ioos:station:TCOON:127:1,2019-08-08T11:24:00Z,28.2598,-96.7737,0.0,30.2,11111222 
TCOON,ioos:station:TCOON:127:1,2019-08-08T12:24:00Z,28.2598,-96.7737,0.0,30.2,11111222 
TCOON,ioos:station:TCOON:127:1,2019-08-08T13:24:00Z,28.2598,-96.7737,0.0,30.0,11111222 
TCOON,ioos:station:TCOON:127:1,2019-08-08T14:24:00Z,28.2598,-96.7737,0.0,30.0,11111222 
TCOON,ioos:station:TCOON:127:1,2019-08-08T15:24:00Z,28.2598,-96.7737,0.0,30.1,11111222 
TCOON,ioos:station:TCOON:127:1,2019-08-08T16:30:00Z,28.2598,-96.7737,0.0,30.3,11111222 
TCOON,ioos:station:TCOON:127:1,2019-08-08T17:30:00Z,28.2598,-96.7737,0.0,30.7,11111222 
TCOON,ioos:station:TCOON:127:1,2019-08-08T18:30:00Z,28.2598,-96.7737,0.0,30.8,11111222 
TCOON,ioos:station:TCOON:127:1,2019-08-08T19:24:00Z,28.2598,-96.7737,0.0,31.1,11111222 
TCOON,ioos:station:TCOON:127:1,2019-08-08T20:24:00Z,28.2598,-96.7737,0.0,31.2,11111222 
TCOON,ioos:station:TCOON:127:1,2019-08-08T21:24:00Z,28.2598,-96.7737,0.0,31.3,11111222 
TCOON,ioos:station:TCOON:127:1,2019-08-08T22:24:00Z,28.2598,-96.7737,0.0,31.3,11111222 
TCOON,ioos:station:TCOON:127:1,2019-08-08T23:24:00Z,28.2598,-96.7737,0.0,31.3,11111222 
TCOON,ioos:station:TCOON:127:1,2019-08-09T00:24:00Z,28.2598,-96.7737,0.0,31.3,11111222 
TCOON,ioos:station:TCOON:127:1,2019-08-09T01:24:00Z,28.2598,-96.7737,0.0,31.1,11111222 
TCOON,ioos:station:TCOON:127:1,2019-08-09T02:24:00Z,28.2598,-96.7737,0.0,31.0,11111222 
TCOON,ioos:station:TCOON:127:1,2019-08-09T03:24:00Z,28.2598,-96.7737,0.0,30.9,11111222 
TCOON,ioos:station:TCOON:127:1,2019-08-09T04:24:00Z,28.2598,-96.7737,0.0,30.8,11111222 
TCOON,ioos:station:TCOON:127:1,2019-08-09T05:24:00Z,28.2598,-96.7737,0.0,30.6,11111222 
TCOON,ioos:station:TCOON:127:1,2019-08-09T06:24:00Z,28.2598,-96.7737,0.0,30.4,11111222 
TCOON,ioos:station:TCOON:127:1,2019-08-09T07:24:00Z,28.2598,-96.7737,0.0,30.4,11111222 
TCOON,ioos:station:TCOON:127:1,2019-08-09T08:24:00Z,28.2598,-96.7737,0.0,30.2,11111222 
TCOON,ioos:station:TCOON:127:1,2019-08-09T09:24:00Z,28.2598,-96.7737,0.0,30.1,11111222 
TCOON,ioos:station:TCOON:127:1,2019-08-09T10:24:00Z,28.2598,-96.7737,0.0,30.0,11111222 
TCOON,ioos:station:TCOON:127:1,2019-08-09T11:24:00Z,28.2598,-96.7737,0.0,29.9,11111222 
TCOON,ioos:station:TCOON:127:1,2019-08-09T12:24:00Z,28.2598,-96.7737,0.0,29.8,11111222 
TCOON,ioos:station:TCOON:127:1,2019-08-09T13:24:00Z,28.2598,-96.7737,0.0,29.8,11111222 
TCOON,ioos:station:TCOON:127:1,2019-08-09T14:24:00Z,28.2598,-96.7737,0.0,29.8,11111222 
TCOON,ioos:station:TCOON:127:1,2019-08-09T15:24:00Z,28.2598,-96.7737,0.0,29.9,11111222 
TCOON,ioos:station:TCOON:127:1,2019-08-09T16:24:00Z,28.2598,-96.7737,0.0,30.2,11111222 
TCOON,ioos:station:TCOON:127:1,2019-08-09T17:24:00Z,28.2598,-96.7737,0.0,30.4,11111222 
TCOON,ioos:station:TCOON:127:1,2019-08-09T18:30:00Z,28.2598,-96.7737,0.0,30.8,11111222 
TCOON,ioos:station:TCOON:127:1,2019-08-09T19:24:00Z,28.2598,-96.7737,0.0,30.9,11111222 
TCOON,ioos:station:TCOON:127:1,2019-08-09T20:24:00Z,28.2598,-96.7737,0.0,31.0,11111222 
TCOON,ioos:station:TCOON:127:1,2019-08-09T21:24:00Z,28.2598,-96.7737,0.0,31.1,11111222 
TCOON,ioos:station:TCOON:127:1,2019-08-09T22:24:00Z,28.2598,-96.7737,0.0,31.1,11111222 
TCOON,ioos:station:TCOON:127:1,2019-08-09T23:24:00Z,28.2598,-96.7737,0.0,31.1,11111222 
TCOON,ioos:station:TCOON:127:1,2019-08-10T00:24:00Z,28.2598,-96.7737,0.0,31.0,11111222 
TCOON,ioos:station:TCOON:127:1,2019-08-10T01:24:00Z,28.2598,-96.7737,0.0,30.9,11111222 
TCOON,ioos:station:TCOON:127:1,2019-08-10T02:24:00Z,28.2598,-96.7737,0.0,30.8,11111222 
TCOON,ioos:station:TCOON:127:1,2019-08-10T03:54:00Z,28.2598,-96.7737,0.0,30.6,11111222 
TCOON,ioos:station:TCOON:127:1,2019-08-10T04:54:00Z,28.2598,-96.7737,0.0,30.4,11111222 
TCOON,ioos:station:TCOON:127:1,2019-08-10T05:54:00Z,28.2598,-96.7737,0.0,30.4,11111222 
TCOON,ioos:station:TCOON:127:1,2019-08-10T06:54:00Z,28.2598,-96.7737,0.0,30.3,11111222 
TCOON,ioos:station:TCOON:127:1,2019-08-10T07:54:00Z,28.2598,-96.7737,0.0,30.2,11111222 
TCOON,ioos:station:TCOON:127:1,2019-08-10T08:54:00Z,28.2598,-96.7737,0.0,30.1,11111222 
TCOON,ioos:station:TCOON:127:1,2019-08-10T09:54:00Z,28.2598,-96.7737,0.0,29.9,11111222 
TCOON,ioos:station:TCOON:127:1,2019-08-10T10:54:00Z,28.2598,-96.7737,0.0,29.8,11111222 
TCOON,ioos:station:TCOON:127:1,2019-08-10T11:54:00Z,28.2598,-96.7737,0.0,29.5,11111222 
TCOON,ioos:station:TCOON:127:1,2019-08-10T12:54:00Z,28.2598,-96.7737,0.0,29.8,11111222 
TCOON,ioos:station:TCOON:127:1,2019-08-10T13:54:00Z,28.2598,-96.7737,0.0,29.9,11111222 
TCOON,ioos:station:TCOON:127:1,2019-08-10T14:54:00Z,28.2598,-96.7737,0.0,29.7,11111222 
TCOON,ioos:station:TCOON:127:1,2019-08-10T15:54:00Z,28.2598,-96.7737,0.0,29.8,11111222 
TCOON,ioos:station:TCOON:127:1,2019-08-10T16:54:00Z,28.2598,-96.7737,0.0,29.8,11111222 
TCOON,ioos:station:TCOON:127:1,2019-08-10T17:54:00Z,28.2598,-96.7737,0.0,30.3,11111222 
TCOON,ioos:station:TCOON:127:1,2019-08-10T18:54:00Z,28.2598,-96.7737,0.0,30.6,11111222 
TCOON,ioos:station:TCOON:127:1,2019-08-10T19:54:00Z,28.2598,-96.7737,0.0,31.2,11111222 
TCOON,ioos:station:TCOON:127:1,2019-08-10T20:54:00Z,28.2598,-96.7737,0.0,31.4,11111222 
TCOON,ioos:station:TCOON:127:1,2019-08-10T21:54:00Z,28.2598,-96.7737,0.0,31.6,11111222 
TCOON,ioos:station:TCOON:127:1,2019-08-10T22:54:00Z,28.2598,-96.7737,0.0,31.7,11111222 
TCOON,ioos:station:TCOON:127:1,2019-08-10T23:54:00Z,28.2598,-96.7737,0.0,31.6,11111222 
TCOON,ioos:station:TCOON:127:1,2019-08-11T00:54:00Z,28.2598,-96.7737,0.0,31.5,11111222 
TCOON,ioos:station:TCOON:127:1,2019-08-11T01:54:00Z,28.2598,-96.7737,0.0,31.3,11111222 
TCOON,ioos:station:TCOON:127:1,2019-08-11T02:54:00Z,28.2598,-96.7737,0.0,31.2,11111222 
TCOON,ioos:station:TCOON:127:1,2019-08-11T03:54:00Z,28.2598,-96.7737,0.0,31.0,11111222 
TCOON,ioos:station:TCOON:127:1,2019-08-11T04:54:00Z,28.2598,-96.7737,0.0,30.9,11111222 
TCOON,ioos:station:TCOON:127:1,2019-08-11T05:54:00Z,28.2598,-96.7737,0.0,30.7,11111222 
TCOON,ioos:station:TCOON:127:1,2019-08-11T06:54:00Z,28.2598,-96.7737,0.0,30.6,11111222 
TCOON,ioos:station:TCOON:127:1,2019-08-11T07:54:00Z,28.2598,-96.7737,0.0,30.5,11111222 
TCOON,ioos:station:TCOON:127:1,2019-08-11T08:54:00Z,28.2598,-96.7737,0.0,30.3,11111222 
TCOON,ioos:station:TCOON:127:1,2019-08-11T09:54:00Z,28.2598,-96.7737,0.0,30.3,11111222 
TCOON,ioos:station:TCOON:127:1,2019-08-11T10:54:00Z,28.2598,-96.7737,0.0,30.4,11111222 
TCOON,ioos:station:TCOON:127:1,2019-08-11T11:54:00Z,28.2598,-96.7737,0.0,30.3,11111222 
TCOON,ioos:station:TCOON:127:1,2019-08-11T12:54:00Z,28.2598,-96.7737,0.0,30.4,11111222 
TCOON,ioos:station:TCOON:127:1,2019-08-11T13:54:00Z,28.2598,-96.7737,0.0,30.3,11111222 
TCOON,ioos:station:TCOON:127:1,2019-08-11T14:54:00Z,28.2598,-96.7737,0.0,30.3,11111222 
TCOON,ioos:station:TCOON:127:1,2019-08-11T15:24:00Z,28.2598,-96.7737,0.0,30.4,11111222 
TCOON,ioos:station:TCOON:127:1,2019-08-11T16:24:00Z,28.2598,-96.7737,0.0,30.5,11111222 
TCOON,ioos:station:TCOON:127:1,2019-08-11T17:24:00Z,28.2598,-96.7737,0.0,31.0,11111222 
TCOON,ioos:station:TCOON:127:1,2019-08-11T18:24:00Z,28.2598,-96.7737,0.0,31.2,11111222 
TCOON,ioos:station:TCOON:127:1,2019-08-11T19:24:00Z,28.2598,-96.7737,0.0,31.6,11111222 
TCOON,ioos:station:TCOON:127:1,2019-08-11T20:24:00Z,28.2598,-96.7737,0.0,31.8,11111222 
TCOON,ioos:station:TCOON:127:1,2019-08-11T21:24:00Z,28.2598,-96.7737,0.0,31.8,11111222 
TCOON,ioos:station:TCOON:127:1,2019-08-11T22:24:00Z,28.2598,-96.7737,0.0,31.8,11111222 
TCOON,ioos:station:TCOON:127:1,2019-08-11T23:24:00Z,28.2598,-96.7737,0.0,31.8,11111222 
TCOON,ioos:station:TCOON:127:1,2019-08-12T00:24:00Z,28.2598,-96.7737,0.0,31.8,11111222 
TCOON,ioos:station:TCOON:127:1,2019-08-12T01:24:00Z,28.2598,-96.7737,0.0,31.6,11111222 
TCOON,ioos:station:TCOON:127:1,2019-08-12T02:24:00Z,28.2598,-96.7737,0.0,31.5,11111222 
TCOON,ioos:station:TCOON:127:1,2019-08-12T03:24:00Z,28.2598,-96.7737,0.0,31.3,11111222 
TCOON,ioos:station:TCOON:127:1,2019-08-12T04:24:00Z,28.2598,-96.7737,0.0,31.2,11111222 
TCOON,ioos:station:TCOON:127:1,2019-08-12T05:24:00Z,28.2598,-96.7737,0.0,31.1,11111222 
TCOON,ioos:station:TCOON:127:1,2019-08-12T06:24:00Z,28.2598,-96.7737,0.0,31.0,11111222 
TCOON,ioos:station:TCOON:127:1,2019-08-12T08:06:00Z,28.2598,-96.7737,0.0,30.8,11111222 
TCOON,ioos:station:TCOON:127:1,2019-08-12T09:54:00Z,28.2598,-96.7737,0.0,30.6,11111222 
TCOON,ioos:station:TCOON:127:1,2019-08-12T10:54:00Z,28.2598,-96.7737,0.0,30.5,11111222 